Content
SEND FEEDBACK

Daily
Averages
Monthly
Summary
Iran

TABRIZ, IRAN


Home > Middle East > Iran
Elevation: 4316 feet     Latitude: 38 05N     Longitude: 046 17E

WEATHER
 
SELECT A DAY
Number of Records: 189,854;   Date Range: 2/9/98 - 9/21/14
 
SHARE

PRINT THIS DATA

[ ← Previous Day ]
WEATHER ALMANAC - JANUARY 23, 2013
[ Next Day → ]
[ °C ]   °F
Weather ElementAverageHighLow
Temperature39.7 °F50 °F (1:20 pm)30 °F (3:30 am)
Dewpoint30 °F33.8 °F (2:00 pm)26.6 °F (7:20 pm)
Humidity70.2 %93 % (12:30 am)42 % (3:30 pm)
Barometer30.08 in30.22 in (9:30 am)30.04 in (2:20 pm)
Wind Speed8.8 mph20.7 mph (2:50 pm)
Weather ElementAverage
Visibility5.1 mi
Wind DirectionSSE (171.2 °)

Weather ElementTotal
Precipitation---
Heating Degree Days25 (Base 65)
Averaged from 57 records on January 23, 2013
WEATHER CONDITIONS BREAKOUT
WIND DIRECTION BREAKOUT
WEATHER BY HOUR - JANUARY 23, 2013
[ °C ]   °F
Local TimeTemperatureDewpointHumidityBarometerVisibilityWind DirectionWind SpeedGust SpeedPrecipitationEventsConditions
12:30 AM32.0 °F30.2 °F93 %30.12 in4.3 miNE (40°)4.6 mph
1:20 AM32.0 °F30.2 °F93 %30.12 in4.3 miENE (60°)4.6 mph
1:30 AM32.0 °F30.2 °F93 %30.12 in4.3 miENE (60°)4.6 mph
2:20 AM30.2 °F28.4 °F93 %30.12 in4.3 miNE (50°)6.9 mph
2:30 AM30.2 °F28.4 °F93 %30.12 in4.3 miNE (50°)6.9 mph
3:20 AM30.2 °F28.4 °F93 %30.09 in4.3 miENE (60°)4.6 mph
3:30 AM30.2 °F28.4 °F93 %30.09 in4.3 miENE (60°)4.6 mph
3:30 AM30.0 °F29.0 °F92 %30.16 in4.0 miENE (60°)4.5 mphMist
4:20 AM30.2 °F28.4 °F93 %30.09 in4.3 miNE (50°)4.6 mph
4:30 AM30.2 °F28.4 °F93 %30.09 in4.3 miNE (50°)4.6 mph
5:20 AM30.2 °F28.4 °F93 %30.09 in4.3 miNE (50°)4.6 mph
5:30 AM30.2 °F28.4 °F93 %30.09 in4.3 miNE (50°)4.6 mph
6:20 AM32.0 °F30.2 °F93 %30.09 in5.0 miNNE (30°)6.9 mph
6:30 AM32.0 °F30.2 °F93 %30.09 in5.0 miNNE (30°)6.9 mph
6:50 AM33.8 °F30.2 °F87 %30.09 in5.0 miCalmScattered Clouds
7:20 AM33.8 °F30.2 °F87 %30.09 in5.0 miNE (40°)4.6 mphMostly Cloudy
7:30 AM33.8 °F30.2 °F87 %30.09 in5.0 miNE (40°)4.6 mphMostly Cloudy
8:00 AM32.0 °F30.2 °F93 %30.12 in4.3 miENE (60°)4.6 mphScattered Clouds
8:20 AM32.0 °F30.2 °F93 %30.12 in4.3 miNNE (30°)4.6 mphScattered Clouds
8:30 AM32.0 °F30.2 °F93 %30.12 in4.3 miNNE (30°)4.6 mphScattered Clouds
9:00 AM33.8 °F30.2 °F87 %30.12 in3.7 miENE (70°)4.6 mphMostly Cloudy
9:20 AM37.4 °F32.0 °F81 %30.12 in3.7 miNE (40°)4.6 mphMostly Cloudy
9:30 AM37.0 °F31.0 °F72 %30.22 in4.0 miNE (40°)4.5 mphMist
9:30 AM37.4 °F32.0 °F81 %30.12 in3.7 miNE (40°)4.6 mphMostly Cloudy
10:00 AM41.0 °F32.0 °F70 %30.12 in3.7 miSouth (180°)4.6 mphPartly Cloudy
10:20 AM42.8 °F32.0 °F66 %30.12 in3.7 miCalmHaze
10:30 AM42.8 °F32.0 °F66 %30.12 in3.7 miCalmHaze
11:20 AM44.6 °F30.2 °F57 %30.12 in4.3 miWNW (300°)4.6 mphHaze
11:30 AM44.6 °F30.2 °F57 %30.12 in4.3 miWNW (300°)4.6 mphHaze
12:00 PM44.6 °F32.0 °F61 %30.09 in4.3 miNW (310°)13.8 mphHaze
12:20 PM46.4 °F30.2 °F53 %30.09 in4.3 miWest (270°)11.5 mphHaze
12:30 PM46.4 °F30.2 °F53 %30.09 in4.3 miWest (270°)11.5 mphHaze
1:00 PM46.4 °F32.0 °F57 %30.06 in4.3 miWest (270°)4.6 mphHaze
1:20 PM50.0 °F32.0 °F50 %30.06 in3.7 miWNW (300°)11.5 mphPartly Cloudy
1:30 PM50.0 °F32.0 °F50 %30.06 in3.7 miWNW (300°)11.5 mphPartly Cloudy
2:00 PM50.0 °F33.8 °F54 %30.06 in6.2 miWest (280°)18.4 mphPartly Cloudy
2:20 PM50.0 °F32.0 °F50 %30.04 in6.2 miWNW (290°)18.4 mphPartly Cloudy
2:30 PM50.0 °F32.0 °F50 %30.04 in6.2 miWNW (290°)18.4 mphPartly Cloudy
2:50 PM50.0 °F33.8 °F54 %30.04 in6.2 miWNW (290°)20.7 mphPartly Cloudy
3:20 PM50.0 °F33.8 °F54 %30.04 in6.2 miWest (280°)20.7 mphPartly Cloudy
3:30 PM49.0 °F33.0 °F42 %30.08 in9.0 miWest (280°)20.1 mphMostly Cloudy
4:20 PM48.2 °F30.2 °F50 %30.04 in6.2 miSW (230°)18.4 mphPartly Cloudy
5:20 PM50.0 °F30.2 °F47 %30.04 in6.2 miWest (280°)6.9 mphPartly Cloudy
5:30 PM50.0 °F30.2 °F47 %30.04 in6.2 miWest (280°)6.9 mphPartly Cloudy
6:20 PM46.4 °F28.4 °F50 %30.04 in6.2 miSW (230°)6.9 mphPartly Cloudy
6:30 PM46.4 °F28.4 °F50 %30.04 in6.2 miSW (230°)6.9 mphPartly Cloudy
7:20 PM42.8 °F26.6 °F53 %30.04 in6.2 miWest (270°)6.9 mphPartly Cloudy
7:30 PM42.8 °F26.6 °F53 %30.04 in6.2 miWest (270°)6.9 mphPartly Cloudy
8:20 PM42.8 °F28.4 °F57 %30.04 in6.2 miWNW (300°)16.1 mphPartly Cloudy
8:30 PM42.8 °F28.4 °F57 %30.04 in6.2 miWNW (300°)16.1 mphPartly Cloudy
9:20 PM41.0 °F28.4 °F61 %30.06 in6.2 miWNW (290°)18.4 mphScattered Clouds
9:30 PM41.0 °F28.0 °F48 %30.10 in7.0 miWNW (290°)17.9 mphPartly Cloudy
9:30 PM41.0 °F28.4 °F61 %30.06 in6.2 miWNW (290°)18.4 mphScattered Clouds
10:20 PM39.2 °F28.4 °F65 %30.04 in6.2 miNW (310°)13.8 mphScattered Clouds
10:30 PM39.2 °F28.4 °F65 %30.04 in6.2 miNW (310°)13.8 mphScattered Clouds
11:20 PM39.2 °F28.4 °F65 %30.04 in6.2 miWNW (290°)9.2 mphScattered Clouds
11:30 PM39.2 °F28.4 °F65 %30.04 in6.2 miWNW (290°)9.2 mphScattered Clouds
Hourly data recorded from OITT, located miles away from Tabriz, Iran







STORIES FROM OUR PARTNERS